Cahokia, IL

8:18 AM CST on December 08, 2019 (GMT -0600)
Saint Louis Downtown

Weather History for KCPS - November, 2019

Change the Weather History Date:

Tuesday, November 19, 2019

  Actual Average Record
Temperature  
Mean Temperature 46 °F -  
Max Temperature 57 °F 52 °F 80 °F (1942)
Min Temperature 34 °F 33 °F 21 °F (2000)
Degree Days  
Heating Degree Days 20    
Moisture  
Dew Point 38 °F    
Average Humidity 74    
Maximum Humidity 92    
Minimum Humidity 49    
Precipitation  
Precipitation 0.00 in - - ()
Sea Level Pressure  
Sea Level Pressure 29.86 in    
Wind  
Wind Speed 7 mph (WNW)    
Max Wind Speed 22 mph    
Max Gust Speed 30 mph    
Visibility 10 miles    
Events      
Averages and records for this station are not official NWS values.
T = Trace of Precipitation, MM = Missing Value Source: NWS Daily Summary

Daily Weather History Graph

Daily Weather History Graph

Search for Another Location

Airport or City:

Astronomy

Nov. 19, 2019 Rise Set
Actual Time 6:46 AM CST 4:44 PM CST
Civil Twilight 6:18 AM CST 5:13 PM CST
Nautical Twilight 5:45 AM CST 5:45 PM CST
Astronomical Twilight 5:14 AM CST 6:17 PM CST
Moon 11:40 PM CST (11/19) 12:57 PM CST (11/19)
Length of Visible Light 10h 55m
Length of Day
9h 58m
Waning Gibbous, 51% of the Moon is Illuminated
Nov 19
Waning Gibbous
Nov 19
Last Quarter
Nov 26
New
Dec 4
First Quarter
Dec 11
Full

Hourly Weather History & Observations

Time (CST) Temp. Windchill Dew Point Humidity Pressure Visibility Wind Dir Wind Speed Gust Speed Precip Events Conditions
12:53 AM 46.9 °F - 39.0 °F 74% 29.72 in 10.0 mi South 3.5 mph - 0.00 in   Overcast
1:53 AM 46.0 °F 44.8 °F 39.0 °F 76% 29.72 in 10.0 mi SSE 3.5 mph - N/A   Overcast
2:53 AM 46.0 °F 44.8 °F 39.9 °F 79% 29.71 in 10.0 mi South 3.5 mph - N/A   Overcast
3:53 AM 45.0 °F - 39.9 °F 82% 29.71 in 10.0 mi Calm Calm - N/A   Overcast
4:53 AM 46.9 °F - 42.1 °F 83% 29.71 in 10.0 mi Calm Calm - N/A   Overcast
5:53 AM 45.0 °F 43.5 °F 41.0 °F 86% 29.73 in 10.0 mi WSW 3.5 mph - N/A   Mostly Cloudy
6:53 AM 44.1 °F 40.1 °F 39.9 °F 85% 29.76 in 10.0 mi West 6.9 mph - N/A   Scattered Clouds
7:53 AM 46.9 °F - 41.0 °F 80% 29.79 in 10.0 mi WNW 9.2 mph 23.0 mph N/A   Overcast
8:13 AM 46.9 °F - 41.0 °F 80% 29.79 in 10.0 mi WNW 12.7 mph - N/A   Overcast
8:53 AM 48.0 °F - 41.0 °F 77% 29.82 in 10.0 mi WNW 12.7 mph - N/A   Overcast
9:53 AM 50.0 °F - 41.0 °F 71% 29.84 in 10.0 mi NW 17.3 mph - N/A   Overcast
10:53 AM 52.0 °F - 41.0 °F 66% 29.85 in 10.0 mi NW 21.9 mph 29.9 mph N/A   Mostly Cloudy
11:16 AM 53.1 °F - 41.0 °F 64% 29.85 in 10.0 mi NW 16.1 mph 25.3 mph N/A   Partly Cloudy
11:53 AM 54.0 °F - 41.0 °F 62% 29.85 in 10.0 mi NW 13.8 mph 25.3 mph N/A   Scattered Clouds
12:53 PM 57.0 °F - 39.9 °F 53% 29.87 in 10.0 mi NW 19.6 mph 27.6 mph N/A   Partly Cloudy
1:53 PM 57.0 °F - 39.0 °F 51% 29.88 in 10.0 mi NW 18.4 mph - N/A   Scattered Clouds
2:53 PM 57.0 °F - 37.9 °F 49% 29.90 in 10.0 mi NW 18.4 mph 25.3 mph N/A   Partly Cloudy
3:53 PM 55.9 °F - 37.0 °F 49% 29.92 in 10.0 mi WNW 11.5 mph - N/A   Partly Cloudy
4:53 PM 50.0 °F - 36.0 °F 59% 29.94 in 10.0 mi NW 6.9 mph - N/A   Clear
5:53 PM 46.0 °F - 36.0 °F 68% 29.96 in 10.0 mi Calm Calm - N/A   Clear
6:53 PM 42.1 °F - 35.1 °F 76% 29.98 in 10.0 mi Calm Calm - N/A   Clear
7:53 PM 37.9 °F - 34.0 °F 86% 29.99 in 10.0 mi Calm Calm - N/A   Clear
8:53 PM 36.0 °F - 33.1 °F 89% 30.01 in 10.0 mi Calm Calm - N/A   Clear
9:53 PM 35.1 °F - 32.0 °F 89% 30.02 in 10.0 mi Calm Calm - N/A   Clear
10:53 PM 34.0 °F - 32.0 °F 92% 30.04 in 9.0 mi Calm Calm - N/A   Clear
11:53 PM 34.0 °F - 30.9 °F 89% 30.06 in 10.0 mi Calm Calm - N/A   Clear